This is the latest recevied weather packets stored in our database for station/object CE3TDM-10. If no packets are shown the sender has not sent any weather packets the latest 10 day(s).
| Time | Temp. | Humidity | Pressure | Rain* | Wind** | Luminosity | Snow |
|---|---|---|---|---|---|---|---|
| 1787748549 | 21.11° C | 40% | 918.3 hPa | - | - | - | - |
| 1787746749 | 21.11° C | 39% | 917.3 hPa | - | - | - | - |
| 1787745849 | 21.11° C | 39% | 917.6 hPa | - | - | - | - |
| 1787744949 | 21.11° C | 39% | 917.5 hPa | - | - | - | - |
| 1787744049 | 21.11° C | 39% | 917.5 hPa | - | - | - | - |
| 1787743148 | 21.11° C | 39% | 917.6 hPa | - | - | - | - |
| 1787742248 | 21.67° C | 39% | 917.2 hPa | - | - | - | - |
| 1787741348 | 21.67° C | 39% | 917.6 hPa | - | - | - | - |
| 1787740448 | 21.67° C | 38% | 917.3 hPa | - | - | - | - |
| 1787739548 | 22.78° C | 37% | 917.1 hPa | - | - | - | - |
| 1787738648 | 23.33° C | 37% | 917.8 hPa | - | - | - | - |
| 1787737748 | 23.33° C | 37% | 917.6 hPa | - | - | - | - |
| 1787736848 | 23.33° C | 37% | 917.7 hPa | - | - | - | - |
| 1787735948 | 23.33° C | 37% | 917.2 hPa | - | - | - | - |
| 1787735048 | 23.33° C | 37% | 917.3 hPa | - | - | - | - |
| 1787734148 | 23.33° C | 37% | 917.5 hPa | - | - | - | - |
| 1787733247 | 23.89° C | 37% | 917.1 hPa | - | - | - | - |
| 1787732347 | 23.89° C | 37% | 917.1 hPa | - | - | - | - |
| 1787731447 | 23.89° C | 36% | 917.6 hPa | - | - | - | - |
| 1787730547 | 23.89° C | 36% | 917.7 hPa | - | - | - | - |
| 1787729647 | 24.44° C | 35% | 917.4 hPa | - | - | - | - |
| 1787728747 | 25° C | 35% | 918.1 hPa | - | - | - | - |
| 1787727847 | 25.56° C | 35% | 918.2 hPa | - | - | - | - |
| 1787726947 | 25.56° C | 35% | 917.3 hPa | - | - | - | - |
| 1787726047 | 26.11° C | 35% | 918.3 hPa | - | - | - | - |
* Rain since midnight (hover to see other rain measurements)
** Current wind speed in m/s (hover to see current wind gust speed)